Flag for New Zealand Weather past 2 weeks in Invercargill, New Zealand

Now
25 °F

Cold.


Feels Like: 25 °F
Forecast: 46 / 49 °F
Wind: 2 mph from Southwest

Location: Christchurch Airport

Current Time: May 23, 2015 at 7:29:01 AM

Latest Report: May 23, 2015 at 7:00 AM


Visibility: N/A

Pressure: 29.65 "Hg

Humidity: 93%

Dew point: 23 °F

Location of InvercargillLocation

Historic Weather in Invercargill — Graph

°F

Invercargill temperature yesterday

Maximum temperature yesterday: 52 °F (at 12:00 PM)
Minimum temperature yesterday: 37 °F (at 10:00 PM)
Average temperature yesterday: 44 °F

Past Weeks' High & Low Weather Summary

 TemperatureHumidityPressure
High72 °F (May 21, 1:00 PM)100% (May 10, 8:30 PM)30.21 "Hg (May 10, 8:30 PM)
Low27 °F (May 23, 5:00 AM)30% (May 8, 3:00 PM)29.12 "Hg (May 12, 7:00 AM)
Average51 °F72%29.68 "Hg
* Reported May 8 6:00 AM — May 23 6:00 AM, Invercargill, Weather by CustomWeather, © 2015

Note: Actual official high and low records may vary slightly from our data, if they occured in-between our weather recording intervals... More about our weather records

Advertising

Invercargill weather history for previous 24 hours

 ConditionsComfort  
Time TempWeatherWind HumidityBarometerVisibility
6:00 AM
Sat, May 23
27 °FChilly.3 mph100%29.65 "HgN/A
5:30 AM27 °FChilly.1 mph100%29.68 "HgN/A
5:00 AM27 °FChilly.2 mph93%29.68 "HgN/A
4:30 AM28 °FChilly.3 mph93%29.68 "HgN/A
4:00 AM28 °FChilly.2 mph93%29.71 "HgN/A
3:30 AM28 °FChilly.1 mph93%29.71 "HgN/A
3:00 AM30 °FChilly.3 mph93%29.74 "HgN/A
2:30 AM30 °FChilly.3 mph93%29.74 "HgN/A
2:00 AM28 °FChilly.1 mph93%29.74 "HgN/A
1:30 AM30 °FChilly.2 mph93%29.77 "HgN/A
1:00 AM32 °FChilly.5 mph93%29.77 "HgN/A
12:30 AM32 °FChilly.3 mph93%29.77 "HgN/A
12:00 AM36 °FChilly.1 mph87%29.77 "HgN/A
11:30 PM
Fri, May 22
37 °FChilly.5 mph81%29.80 "HgN/A
11:00 PM37 °FChilly.5 mph81%29.80 "HgN/A
10:30 PM37 °FChilly.6 mph81%29.80 "HgN/A
10:00 PM37 °FChilly.6 mph87%29.80 "HgN/A
9:30 PM39 °FChilly.5 mph87%29.80 "HgN/A
9:00 PM41 °FQuite cool.5 mph81%29.83 "HgN/A
8:30 PM45 °FQuite cool.7 mph76%29.83 "HgN/A
8:00 PM43 °FQuite cool.7 mph81%29.83 "HgN/A
7:30 PM43 °FQuite cool.9 mph76%29.83 "HgN/A
7:00 PM45 °FQuite cool.9 mph71%29.86 "HgN/A
6:30 PM45 °FQuite cool.9 mph66%29.86 "HgN/A
6:00 PM45 °FQuite cool.9 mph66%29.86 "HgN/A
5:30 PM45 °FQuite cool.9 mph66%29.86 "HgN/A
5:00 PM46 °FCool.9 mph62%29.86 "HgN/A
4:30 PM48 °FCool.12 mph54%29.86 "HgN/A
4:00 PM50 °FCool.12 mph50%29.89 "HgN/A
3:30 PM50 °FCool.10 mph50%29.89 "HgN/A
3:00 PM52 °FCool.9 mph47%29.89 "HgN/A
2:30 PM52 °FCool.9 mph47%29.89 "HgN/A
2:00 PM52 °FCool.8 mph44%29.89 "HgN/A
1:30 PM52 °FCool.6 mph44%29.92 "HgN/A
1:00 PM52 °FCool.3 mph44%29.92 "HgN/A
12:30 PM50 °FCool.2 mph47%29.95 "HgN/A
12:00 PM52 °FCool.1 mph44%29.95 "HgN/A
11:30 AM50 °FCool.5 mph47%29.98 "HgN/A
11:00 AM48 °FCool.5 mph62%29.98 "HgN/A
10:30 AM46 °FCool.7 mph62%29.98 "HgN/A
10:00 AM45 °FQuite cool.7 mph71%29.98 "HgN/A
9:30 AM45 °FQuite cool.6 mph66%29.98 "HgN/A
9:00 AM41 °FQuite cool.7 mph70%29.98 "HgN/A
8:30 AM39 °FChilly.7 mph75%29.95 "HgN/A
8:00 AM39 °FChilly.7 mph75%29.95 "HgN/A
7:30 AM39 °FChilly.6 mph70%29.95 "HgN/A
7:00 AM39 °FChilly.8 mph75%29.95 "HgN/A
Weather by CustomWeather, © 2015

See weather overviewHow to use our weather pages